Date,TemperatureHighF,TemperatureAvgF,TemperatureLowF,DewpointHighF,DewpointAvgF,DewpointLowF,HumidityHigh,HumidityAvg,HumidityLow,PressureMaxIn,PressureMinIn,WindSpeedMaxMPH,WindSpeedAvgMPH,GustSpeedMaxMPH,PrecipitationSumIn
2013-1-1,20.5,15.6,8.3,6.8,-2.2,-10.0,81,47,27,30.37,30.23,22,5,28,0.00
2013-1-2,21.9,16.1,10.2,2.1,-5.7,-10.0,47,36,27,30.49,30.26,19,6,29,0.00
2013-1-3,27.5,20.3,9.7,-5.0,-9.6,-16.0,38,26,17,30.52,30.36,4,2,8,0.00
2013-1-4,31.5,28.3,25.6,5.4,-5.4,-11.0,37,22,17,30.42,30.06,3,2,5,0.00
2013-1-5,34.1,27.8,22.7,8.0,-1.3,-9.0,51,29,16,30.34,30.09,19,3,29,0.00
2013-1-6,46.5,38.9,26.6,-2.0,-16.5,-34.0,17,9,3,30.32,29.89,6,1,10,0.00
2013-1-7,37.6,33.6,30.1,-3.0,-7.6,-11.0,19,16,12,29.92,29.69,3,3,6,0.00
2013-1-8,37.5,35.0,32.1,12.6,8.5,-8.0,42,34,14,30.18,29.68,30,15,40,0.00
2013-1-9,48.5,42.1,35.3,12.3,7.9,-3.0,28,24,14,30.26,29.81,6,2,12,0.00
2013-1-10,48.3,45.9,42.6,-3.0,-4.5,-9.0,14,11,9,29.82,29.17,6,3,9,0.00
2013-1-11,48.3,28.9,9.5,15.3,-3.6,-16.0,86,32,10,29.91,28.93,25,7,48,0.00
2013-1-12,9.9,3.4,-5.0,0.3,-8.4,-16.0,78,59,29,30.28,29.90,17,2,27,0.00
2013-1-13,3.9,-0.6,-7.0,-2.0,-7.3,-15.0,75,72,63,30.49,30.28,5,1,8,0.00
2013-1-14,4.3,-0.5,-7.0,-5.0,-9.8,-14.0,73,64,42,30.54,30.47,5,1,9,0.00
2013-1-15,29.7,19.4,2.6,8.5,-2.9,-19.0,45,36,27,30.50,30.33,21,3,25,0.00
2013-1-16,40.2,34.7,26.9,14.7,12.2,7.1,55,39,34,30.37,30.23,8,4,14,0.00
2013-1-17,31.5,30.2,24.4,13.8,10.5,8.5,60,44,41,30.48,30.24,4,1,5,0.00
2013-1-18,45.1,38.6,31.5,10.5,-2.6,-9.0,41,17,11,30.26,29.87,29,11,39,0.00
2013-1-19,37.8,36.2,34.7,0.0,-3.2,-4.0,21,17,17,30.14,29.89,25,15,45,0.00
2013-1-20,41.2,35.2,20.0,24.0,-0.8,-9.0,63,22,12,30.19,29.94,23,8,31,0.00
2013-1-21,38.5,32.6,29.5,2.1,0.5,-8.0,28,25,13,30.18,30.06,29,11,48,0.00
2013-1-22,45.7,43.4,39.9,-11.0,-15.3,-99.9,10,8,6,30.06,29.92,32,24,42,0.00
2013-1-23,49.2,44.3,43.6,-8.0,-20.9,-26.0,9,5,4,30.05,29.78,32,10,36,0.00
2013-1-24,51.0,46.8,40.9,8.7,-0.4,-10.0,18,14,9,29.98,29.73,16,4,31,0.00
2013-1-25,50.7,48.3,43.9,21.9,14.3,6.1,40,27,16,29.90,29.79,7,4,12,0.00
2013-1-26,46.5,45.5,33.1,29.6,21.7,21.0,87,40,36,29.82,29.31,4,4,1,0.00
2013-1-27,33.1,33.1,33.1,29.6,29.6,29.6,87,87,87,29.73,29.42,0,0,0,0.00
2013-1-28,33.4,30.6,18.3,29.6,17.4,15.3,92,60,47,29.80,29.08,4,2,7,0.00
2013-1-29,21.0,14.6,9.2,15.3,-0.3,-10.0,88,53,28,30.12,29.81,21,4,32,0.00
2013-1-30,27.9,19.7,9.5,9.9,1.1,-10.0,55,43,31,30.12,29.97,41,12,58,0.01
2013-1-31,29.4,28.5,26.0,12.1,9.9,6.7,53,45,41,30.17,29.99,32,15,44,0.00
2013-2-1,33.2,30.6,27.9,13.8,9.5,6.5,49,41,35,30.18,29.99,28,10,45,0.00
2013-2-2,37.2,34.5,28.2,8.2,2.4,0.3,42,26,21,30.30,30.18,33,7,42,0.00
2013-2-3,41.5,37.6,33.8,0.9,-1.4,-11.0,22,19,10,30.22,29.45,33,8,37,0.00
2013-2-4,33.7,33.1,31.8,0.0,-3.0,-4.0,24,20,19,29.91,29.73,23,16,31,0.00
2013-2-5,44.9,35.5,33.1,19.5,2.2,-3.0,38,24,20,29.87,29.45,16,12,7,0.00
2013-2-6,42.9,40.0,28.1,17.7,14.1,10.4,63,35,30,29.94,29.63,17,8,21,0.00
2013-2-7,35.8,29.1,17.8,21.4,9.8,-11.0,92,49,14,30.23,29.95,13,2,19,0.01
2013-2-8,37.5,33.2,28.5,14.9,-6.0,-18.0,49,18,11,30.11,29.64,6,2,12,0.00
2013-2-9,33.1,24.2,18.0,20.2,14.4,6.0,91,68,46,29.67,29.52,23,4,30,0.00
2013-2-10,22.9,18.5,10.9,15.8,6.7,0.1,82,61,41,30.15,29.59,25,3,31,0.00
2013-2-11,15.6,11.5,6.5,11.9,7.0,1.5,85,82,76,30.30,30.15,5,1,8,0.00
2013-2-12,29.4,21.2,10.7,5.1,-5.3,-17.0,76,32,14,30.30,30.15,27,4,33,0.02
2013-2-13,32.2,28.1,22.5,9.8,4.5,-1.0,44,36,26,30.17,29.99,29,11,45,0.00
2013-2-14,29.7,20.1,11.1,15.6,8.5,4.3,85,65,36,30.35,30.01,25,4,40,0.00
2013-2-15,28.4,20.7,9.3,15.7,7.9,-1.0,83,60,28,30.50,30.35,36,6,47,0.09
2013-2-16,35.2,32.8,26.9,8.5,5.7,4.6,44,32,28,30.37,29.93,43,16,55,0.00
2013-2-17,44.1,40.1,21.4,11.6,-2.7,-10.0,65,18,10,29.96,29.42,25,8,28,0.00
2013-2-18,26.7,21.1,13.8,11.0,-1.4,-7.0,64,37,23,30.19,29.58,25,6,35,0.00
2013-2-19,34.3,22.6,11.7,8.9,2.0,-18.0,58,41,13,30.19,29.89,6,2,8,0.00
2013-2-20,27.2,21.2,12.6,17.4,8.5,2.2,87,60,38,29.88,29.68,8,2,12,0.00
2013-2-21,18.3,13.9,10.0,14.8,9.9,5.3,86,84,81,30.07,29.75,7,2,9,0.00
2013-2-22,24.2,17.5,11.7,16.1,9.3,-1.0,83,71,41,30.12,29.99,18,3,30,0.00
2013-2-23,36.3,28.1,18.0,16.7,5.3,-3.0,86,39,30,29.99,29.68,25,6,47,0.01
2013-2-24,20.3,17.7,10.9,17.5,14.4,6.5,89,87,82,30.24,29.78,21,4,26,0.00
2013-2-25,26.0,19.3,9.7,17.7,11.4,5.0,83,71,56,30.24,29.98,9,2,15,0.07
2013-2-26,23.9,20.1,14.4,19.0,12.4,5.4,88,73,50,30.25,29.92,11,2,17,0.00
2013-2-27,27.3,19.0,11.2,8.2,-0.4,-11.0,76,44,24,30.41,30.25,15,5,28,0.01
2013-2-28,27.2,22.6,16.9,1.0,-2.5,-7.0,39,32,28,30.41,30.23,28,9,37,0.00
2013-3-21,33.4,28.7,25.8,6.1,3.5,1.1,38,34,27,29.72,29.58,20,9,34,0.00
2013-3-22,30.0,22.6,17.0,20.8,12.1,3.3,90,66,36,29.99,29.70,14,4,20,0.00
2013-3-23,17.2,10.8,6.3,13.7,6.3,1.2,86,82,79,30.41,29.97,13,4,15,0.00
2013-3-24,19.1,10.6,4.5,14.2,5.7,0.0,82,80,74,30.48,30.35,12,2,17,0.06
2013-3-25,22.4,14.3,5.2,14.7,7.7,-1.0,81,75,63,30.52,30.45,7,2,11,0.06
2013-3-26,45.2,30.7,15.1,21.8,14.3,4.0,69,51,30,30.44,30.04,19,3,25,0.02
2013-3-27,42.2,35.0,25.8,30.6,23.8,16.6,87,64,45,30.12,30.02,8,2,13,0.00
2013-3-28,50.5,42.4,34.9,27.3,21.1,11.7,60,43,27,30.08,30.00,8,2,12,0.00
2013-3-29,53.1,44.5,37.5,26.4,21.9,17.4,60,42,26,30.03,29.93,20,4,32,0.00
2013-3-30,53.3,42.8,32.4,32.5,22.9,15.8,95,50,24,30.08,29.89,26,7,35,0.00
2013-3-31,57.6,44.2,30.0,31.6,13.9,0.3,95,38,11,30.07,29.92,20,5,29,0.00
2013-4-1,41.2,32.3,25.1,30.3,24.7,18.6,96,74,48,30.07,29.95,8,3,15,0.00
2013-4-2,31.9,30.0,28.2,31.1,29.2,27.4,100,97,96,30.15,30.04,6,1,7,0.06
2013-4-3,51.7,38.1,26.7,37.9,28.4,19.9,98,72,38,30.16,30.08,19,2,20,0.25
2013-4-4,60.5,47.8,37.8,29.0,20.5,12.8,56,35,17,30.12,29.87,16,4,29,0.00
2013-4-5,61.8,50.9,37.6,33.0,17.8,10.4,82,29,17,29.87,29.50,23,7,36,0.03
2013-4-6,51.7,43.5,36.5,25.6,17.7,11.1,53,36,21,29.80,29.62,32,7,49,0.00
2013-4-7,51.3,42.8,35.6,29.1,20.0,12.3,76,41,23,29.75,29.55,33,8,60,0.00
2013-4-8,50.1,39.6,21.8,29.7,23.5,16.5,94,56,30,29.62,29.32,17,4,25,0.00
2013-4-9,21.4,10.5,3.9,18.9,6.0,-1.0,90,82,78,30.36,29.60,12,2,13,0.00
2013-4-10,23.2,12.0,1.5,14.3,6.7,-4.0,88,79,57,30.40,30.16,17,2,28,0.00
2013-4-11,41.3,33.1,23.0,30.3,21.9,11.9,95,65,44,30.16,29.88,37,6,45,0.25
2013-4-12,46.2,33.3,27.0,29.3,25.3,10.1,96,76,23,29.95,29.85,24,3,35,0.04
2013-4-13,53.8,43.0,27.6,30.3,15.8,4.2,93,37,18,29.91,29.32,26,5,42,0.00
2013-4-14,33.8,29.0,23.8,30.9,11.4,-1.0,94,50,23,29.76,29.30,33,8,35,0.06
2013-4-15,28.4,20.0,14.1,21.1,15.3,7.4,88,83,43,30.11,29.74,14,1,14,0.03
2013-4-16,24.5,19.9,14.1,21.9,17.1,10.4,92,89,85,30.13,30.00,6,1,9,0.00
2013-4-17,22.7,17.0,9.0,20.2,13.7,4.3,90,87,81,30.29,30.03,6,1,9,0.00
2013-4-18,26.1,17.8,6.7,18.2,7.0,1.0,82,65,37,30.39,30.25,21,3,33,0.19
2013-4-19,41.5,31.5,23.2,18.2,11.2,3.3,53,43,33,30.34,30.02,34,8,41,0.10
2013-4-20,42.5,37.4,32.5,27.2,22.1,17.1,68,54,40,30.02,29.88,24,5,31,0.00
2013-4-21,48.3,40.4,32.5,23.1,16.9,11.5,66,40,24,30.04,29.90,14,4,29,0.00
2013-4-22,41.5,26.3,14.3,29.9,19.3,10.6,92,76,44,30.26,29.79,21,4,36,0.00
2013-4-23,23.8,16.6,10.4,19.4,12.2,5.7,86,82,72,30.43,30.23,9,2,16,0.22
2013-4-24,27.3,24.8,18.0,16.0,13.8,9.5,75,63,57,30.41,30.32,11,2,17,0.00
2013-4-25,27.3,27.3,27.3,15.2,15.2,15.2,60,60,60,30.35,29.53,2,2,0,0.00
2013-4-26,42.8,28.4,27.3,15.7,15.2,14.7,60,58,32,29.95,29.62,2,2,4,0.00
2013-4-27,42.6,42.6,42.6,15.5,15.5,15.5,33,33,33,29.86,29.70,2,2,0,0.00
2013-4-28,42.6,42.6,42.6,15.5,15.5,15.5,33,33,33,29.70,29.53,2,2,0,0.00
2013-4-29,42.6,42.6,42.6,15.5,15.5,15.5,33,33,33,29.61,29.29,2,2,0,0.00
2013-4-30,42.6,42.6,42.6,15.5,15.5,15.5,33,33,33,29.55,29.29,2,2,0,0.00
2013-5-1,42.6,21.9,14.9,28.2,18.9,11.2,95,89,33,30.74,29.54,12,4,20,0.00
2013-5-2,25.4,20.5,13.3,19.1,15.7,9.3,85,82,69,30.89,30.70,5,2,6,0.01
2013-5-3,43.8,38.7,24.2,27.6,21.7,9.7,72,50,29,30.70,30.15,14,3,21,0.00
2013-5-4,43.8,41.4,32.2,26.3,22.6,16.5,53,47,44,30.17,30.03,7,5,7,0.00
2013-5-5,40.9,40.9,40.9,21.7,21.7,21.7,46,46,46,30.12,29.67,7,7,0,0.00
2013-5-6,45.2,43.5,40.9,27.6,25.3,21.7,50,48,46,29.71,29.55,8,5,8,0.00
2013-5-7,45.2,45.2,45.2,27.6,27.6,27.6,50,50,50,29.64,29.53,4,4,0,0.00
2013-5-8,45.2,45.2,45.2,27.6,27.6,27.6,50,50,50,29.70,29.57,4,4,0,0.00
2013-5-9,45.2,45.2,45.2,27.6,27.6,27.6,50,50,50,29.81,29.68,4,4,0,0.00
2013-5-10,45.2,45.2,45.2,27.6,27.6,27.6,50,50,50,29.97,29.77,4,4,0,0.00
2013-5-11,45.2,45.2,45.2,27.6,27.6,27.6,50,50,50,30.02,29.87,4,4,0,0.00
2013-5-12,45.2,45.2,45.2,27.6,27.6,27.6,50,50,50,29.91,29.82,4,4,0,0.00
2013-5-13,45.2,45.2,45.2,27.6,27.6,27.6,50,50,50,29.90,29.77,4,4,0,0.00
2013-5-14,45.2,45.2,45.2,27.6,27.6,27.6,50,50,50,29.77,29.65,4,4,0,0.00
2013-5-15,45.2,45.2,45.2,27.6,27.6,27.6,50,50,50,29.69,29.61,4,4,0,0.00
2013-5-16,45.2,45.2,45.2,27.6,27.6,27.6,50,50,50,29.62,29.51,4,4,0,0.00
2013-5-17,45.2,45.2,45.2,27.6,27.6,27.6,50,50,50,29.59,29.47,4,4,0,0.00
2013-5-18,45.2,45.2,45.2,27.6,27.6,27.6,50,50,50,29.57,29.42,4,4,0,0.00
2013-5-19,45.2,45.2,45.2,27.6,27.6,27.6,50,50,50,29.49,29.40,4,4,0,0.00
2013-5-20,45.2,45.2,45.2,27.6,27.6,27.6,50,50,50,29.63,29.45,4,4,0,0.00
2013-5-21,45.2,45.2,45.2,27.6,27.6,27.6,50,50,50,29.64,29.52,4,4,0,0.00
2013-5-22,45.2,45.2,45.2,27.6,27.6,27.6,50,50,50,29.72,29.53,4,4,0,0.00
2013-5-23,45.2,45.2,45.2,27.6,27.6,27.6,50,50,50,29.73,29.62,4,4,0,0.00
2013-5-24,45.2,45.2,45.2,27.6,27.6,27.6,50,50,50,29.70,29.57,4,4,0,0.00
2013-5-25,45.2,45.2,45.2,27.6,27.6,27.6,50,50,50,29.70,29.60,4,4,0,0.00
2013-5-26,45.2,45.2,45.2,27.6,27.6,27.6,50,50,50,29.66,29.57,4,4,0,0.00
2013-5-27,45.2,45.2,45.2,27.6,27.6,27.6,50,50,50,29.57,29.45,4,4,0,0.00
2013-5-28,45.2,45.2,45.2,27.6,27.6,27.6,50,50,50,29.50,29.26,4,4,0,0.00
2013-5-29,47.7,45.7,45.2,29.9,28.0,27.6,50,50,50,29.34,29.22,9,5,10,0.00
2013-5-30,47.7,47.7,47.7,29.9,29.9,29.9,50,50,50,29.49,29.19,9,9,0,0.00
2013-5-31,47.7,47.7,47.7,29.9,29.9,29.9,50,50,50,29.67,29.45,9,9,0,0.00
2013-6-1,47.7,47.7,47.7,29.9,29.9,29.9,50,50,50,29.88,29.67,9,9,0,0.00
2013-6-2,68.8,53.6,47.7,49.3,35.4,29.9,50,50,50,29.86,29.54,9,7,3,0.00
2013-6-3,74.0,70.4,67.4,49.3,40.6,24.7,50,38,16,29.64,29.44,12,7,23,0.00
2013-6-4,74.0,52.5,44.8,37.4,34.5,2.6,74,59,17,29.86,29.63,12,4,4,0.00
2013-6-5,45.2,45.2,45.2,37.4,37.4,37.4,74,74,74,29.85,29.76,1,1,0,0.00
2013-6-6,45.2,45.2,45.2,37.4,37.4,37.4,74,74,74,29.84,29.72,1,1,0,0.00
2013-6-7,67.4,51.3,45.2,40.0,39.3,37.4,74,66,35,29.82,29.53,1,0,2,0.00
2013-6-8,67.4,67.4,67.4,38.7,38.7,38.7,35,35,35,29.75,29.45,3,2,0,0.00
2013-6-9,67.4,59.6,56.2,38.7,29.7,25.4,35,32,30,29.75,29.69,10,8,17,0.00
2013-6-10,84.5,62.2,56.9,50.5,26.3,25.1,31,27,12,29.74,29.56,10,9,4,0.00
2013-6-11,83.0,83.0,83.0,25.1,25.1,25.1,12,12,12,29.73,29.58,4,4,0,0.00
2013-6-12,83.0,83.0,83.0,25.1,25.1,25.1,12,12,12,29.88,29.71,4,4,0,0.00
2013-6-13,83.0,83.0,83.0,25.1,25.1,25.1,12,12,12,29.87,29.67,4,4,0,0.00
2013-6-14,83.0,73.8,62.4,34.6,25.1,9.1,30,18,11,29.68,29.53,11,3,14,0.00
2013-6-15,72.7,56.4,49.9,49.0,39.9,33.8,69,57,24,29.91,29.57,4,2,7,0.00
2013-6-16,72.1,61.8,54.2,43.0,32.7,24.6,63,35,18,29.89,29.73,19,5,34,0.00
2013-6-17,64.8,57.4,52.3,47.3,38.2,26.5,77,50,27,29.88,29.79,11,2,15,0.00
2013-6-18,66.6,61.4,51.0,49.5,46.6,41.6,74,59,47,29.88,29.65,6,2,8,0.00
2013-6-19,71.3,55.1,49.5,48.9,40.3,5.8,76,63,8,29.72,29.58,20,1,26,0.00
2013-6-20,76.3,68.6,63.2,28.8,17.8,6.1,19,15,9,29.61,29.45,10,4,15,0.00
2013-6-21,77.6,70.6,57.3,47.1,25.2,3.8,56,23,10,29.56,29.44,9,2,10,0.00
2013-6-22,69.8,58.7,48.9,43.9,39.4,17.9,67,50,14,29.70,29.56,23,3,31,0.00
2013-6-23,69.8,63.3,55.9,50.8,41.1,39.2,69,46,33,29.72,29.53,10,6,10,0.00
2013-6-24,74.7,58.3,52.0,57.9,34.7,14.5,66,46,12,29.65,29.57,18,3,27,0.00
2013-6-25,76.3,68.8,63.4,30.6,25.6,15.4,26,20,13,29.67,29.52,20,6,30,0.00
2013-6-26,87.6,71.3,61.0,32.3,29.9,26.5,28,22,11,29.71,29.62,6,2,13,0.00
2013-6-27,84.7,77.0,66.0,39.5,32.0,24.4,34,20,15,29.77,29.64,12,4,18,0.00
2013-6-28,75.1,67.9,65.6,52.2,40.5,35.6,49,37,32,29.89,29.71,4,2,7,0.00
2013-6-29,71.6,71.6,71.6,51.4,51.4,51.4,49,49,49,29.94,29.65,0,0,0,0.00
2013-6-30,71.6,71.6,71.6,51.4,51.4,51.4,49,49,49,29.95,29.88,0,0,0,0.00
2013-7-1,71.6,71.6,71.6,51.4,51.4,51.4,49,49,49,30.02,29.92,0,0,0,0.00
2013-7-2,71.6,71.6,71.6,51.4,51.4,51.4,49,49,49,29.99,29.87,0,0,0,0.00
2013-7-3,76.1,73.2,71.6,51.4,46.9,38.6,49,41,26,29.87,29.46,6,2,13,0.00
2013-7-4,76.0,76.0,76.0,38.6,38.6,38.6,26,26,26,29.71,29.45,6,6,0,0.00
2013-7-5,76.0,76.0,76.0,38.6,38.6,38.6,26,26,26,29.69,29.61,6,6,0,0.00
2013-7-6,76.0,76.0,76.0,38.6,38.6,38.6,26,26,26,29.76,29.62,6,6,0,0.00
2013-7-7,76.0,76.0,76.0,38.6,38.6,38.6,26,26,26,29.83,29.73,6,6,0,0.00
2013-7-8,76.0,76.0,76.0,38.6,38.6,38.6,26,26,26,29.90,29.77,6,6,0,0.00
2013-7-9,76.0,76.0,76.0,38.6,38.6,38.6,26,26,26,29.97,29.89,6,6,0,0.00
2013-7-20,71.6,62.4,58.3,46.6,-55.5,-99.9,41,12,41,29.79,29.54,4,3,10,0.00
2013-7-21,71.6,71.6,71.6,46.6,46.6,46.6,41,41,41,29.69,29.47,4,4,0,0.00
2013-7-22,71.6,71.6,71.6,46.6,46.6,46.6,41,41,41,29.78,29.68,4,4,0,0.00
2013-7-23,71.6,71.6,71.6,46.6,46.6,46.6,41,41,41,29.93,29.75,4,4,0,0.00
2013-7-24,71.6,71.6,71.6,46.6,46.6,46.6,41,41,41,29.93,29.80,4,4,0,0.00
2013-7-25,71.6,71.6,71.6,46.6,46.6,46.6,41,41,41,29.99,29.78,4,4,0,0.00
2013-7-26,71.6,71.6,71.6,46.6,46.6,46.6,41,41,41,30.02,29.90,4,4,0,0.00
2013-7-27,71.6,71.6,71.6,46.6,46.6,46.6,41,41,41,29.90,29.77,4,4,0,0.00
2013-7-28,71.6,71.6,71.6,46.6,46.6,46.6,41,41,41,29.79,29.65,4,4,0,0.00
2013-7-29,71.6,71.6,71.6,46.6,46.6,46.6,41,41,41,29.92,29.66,4,4,0,0.00
2013-7-30,71.6,71.6,71.6,46.6,46.6,46.6,41,41,41,30.00,29.90,4,4,0,0.00
2013-7-31,71.6,71.6,71.6,46.6,46.6,46.6,41,41,41,30.06,29.94,4,4,0,0.00
2013-8-1,71.6,71.6,71.6,46.6,46.6,46.6,41,41,41,29.98,29.74,4,4,0,0.00
2013-8-2,71.6,71.6,71.6,46.6,46.6,46.6,41,41,41,29.84,29.71,4,4,0,0.00
2013-8-3,71.6,71.6,71.6,46.6,46.6,46.6,41,41,41,30.01,29.81,4,4,0,0.00
2013-8-4,71.6,71.6,71.6,46.6,46.6,46.6,41,41,41,29.94,29.82,4,4,0,0.00
2013-8-5,71.6,71.6,71.6,46.6,46.6,46.6,41,41,41,29.89,29.75,4,4,0,0.00
2013-8-6,71.6,71.6,71.6,46.6,46.6,46.6,41,41,41,29.81,29.73,4,4,0,0.00
2013-8-7,71.6,71.6,71.6,46.6,46.6,46.6,41,41,41,29.84,29.74,4,4,0,0.00
2013-8-8,71.6,71.6,71.6,46.6,46.6,46.6,41,41,41,29.90,29.74,4,4,0,0.00
2013-8-9,71.6,71.6,71.6,46.6,46.6,46.6,41,41,41,29.93,29.84,4,4,0,0.00
2013-8-10,71.6,71.6,71.6,46.6,46.6,46.6,41,41,41,29.93,29.91,4,4,0,0.00
2013-9-11,52.8,52.5,52.0,52.7,30.6,-99.9,100,86,100,29.96,29.93,7,5,14,0.42
2013-9-12,52.6,52.6,52.6,52.5,52.5,52.5,100,100,100,30.08,29.97,2,2,5,0.06
2013-9-13,58.7,57.8,54.7,57.8,56.9,54.1,99,97,97,29.78,29.74,2,0,3,0.02
2013-10-11,49.1,44.5,41.6,28.1,23.4,20.4,49,43,36,29.89,29.27,48,11,67,0.00
2013-10-12,45.4,39.8,33.8,35.9,33.2,25.0,98,79,46,30.10,29.89,10,1,8,0.00
2013-10-13,49.5,42.5,34.4,38.9,35.2,30.6,96,76,61,30.10,29.77,10,1,17,0.01
2013-10-14,44.3,38.5,29.4,35.1,30.5,24.1,95,73,47,30.06,29.66,19,3,36,0.02
2013-10-15,29.7,27.0,23.9,28.7,23.4,20.3,96,86,74,30.30,30.05,5,0,10,0.02
2013-10-16,44.1,33.9,22.7,27.2,18.8,9.4,94,57,31,30.27,30.07,18,1,25,0.00
2013-10-17,37.3,33.1,27.6,28.5,21.7,9.9,99,66,32,30.09,29.98,18,2,25,0.00
2013-10-18,34.1,28.3,24.1,28.3,22.8,11.0,96,82,42,30.23,30.03,17,2,25,0.23
2013-10-19,49.6,41.9,31.5,17.7,14.2,11.3,49,33,23,30.22,29.79,33,10,46,0.00
2013-10-20,45.2,35.6,27.2,31.4,23.2,13.5,97,67,28,30.07,29.80,31,5,40,0.00
2013-10-21,45.4,36.3,26.3,25.3,20.7,17.8,90,56,35,30.25,30.06,20,5,28,0.14
2013-10-22,51.3,46.1,38.8,28.7,22.2,18.1,50,39,28,30.21,30.02,26,5,34,0.00
2013-10-23,53.2,47.1,39.5,29.4,23.3,15.3,63,40,26,30.08,29.98,21,2,32,0.00
2013-10-24,52.5,41.7,33.8,34.0,27.6,19.9,84,59,28,30.15,30.06,5,1,8,0.00
2013-10-25,56.2,48.7,39.1,31.3,21.9,14.2,56,35,25,30.13,29.99,9,2,13,0.00
2013-10-26,48.8,43.3,33.5,30.6,25.5,14.8,72,50,27,30.20,30.07,11,2,16,0.00
2013-10-27,56.7,49.4,44.1,19.1,15.9,12.3,32,26,19,30.07,29.70,16,4,26,0.00
2013-10-28,47.3,30.7,24.1,27.5,23.4,15.6,97,80,28,30.00,29.70,10,2,13,0.00
2013-10-29,32.2,27.5,23.9,31.8,26.4,22.4,99,96,94,30.08,29.93,0,0,0,0.05
2013-10-30,38.5,32.6,26.0,31.0,21.3,11.6,99,66,42,29.95,29.80,19,3,32,0.09
2013-10-31,38.6,34.3,30.7,21.3,13.4,7.3,60,42,30,29.90,29.77,36,14,50,0.00
2013-11-1,40.5,36.0,32.5,27.2,18.2,12.5,72,49,34,30.20,29.89,25,6,33,0.00
2013-11-2,59.3,46.8,35.6,16.1,4.7,-11.0,44,20,7,30.19,29.62,22,4,27,0.00
2013-11-3,53.9,46.1,29.5,24.5,9.8,-11.0,68,26,7,29.63,29.35,19,5,27,0.00
2013-11-4,30.3,25.3,19.7,20.7,13.0,7.1,92,61,37,30.00,29.58,17,2,20,0.00
2013-11-5,30.1,24.4,19.2,16.8,4.9,-7.0,88,47,23,30.25,29.96,28,5,37,0.00
2013-11-6,35.5,31.6,24.8,14.6,8.3,-5.0,44,37,26,30.39,30.19,34,11,50,0.00
2013-11-7,50.4,41.4,33.8,23.9,16.3,13.2,47,36,26,30.42,29.91,32,6,51,0.00
2013-11-8,52.8,47.5,42.5,15.7,11.8,3.0,32,24,15,29.91,29.57,57,12,77,0.00
2013-11-9,51.6,44.2,34.3,28.5,19.1,10.2,67,38,24,30.09,29.84,16,3,33,0.00
2013-11-10,55.1,47.3,39.5,18.4,13.8,9.6,40,26,18,30.14,30.06,20,5,27,0.00
2013-11-11,54.7,38.7,24.5,28.0,19.5,10.6,96,55,17,30.50,30.04,24,5,32,0.00
2013-11-12,46.2,39.5,26.4,27.7,21.2,5.4,93,50,19,30.59,30.36,9,2,14,0.00
2013-11-13,56.7,49.0,42.9,13.9,5.7,-1.0,28,17,12,30.36,29.85,16,5,25,0.00
2013-11-14,47.3,41.1,35.0,28.9,16.6,1.6,66,39,19,29.89,29.65,23,4,33,0.00
2013-11-15,51.0,40.9,31.5,24.7,11.3,-7.0,74,33,12,29.65,29.33,31,9,47,0.00
2013-11-16,43.8,35.3,28.2,27.4,14.7,0.7,92,45,21,29.46,29.14,52,10,61,0.00
2013-11-17,44.9,34.3,26.1,16.5,11.4,0.9,60,40,16,30.06,29.43,35,8,68,0.00
2013-11-18,52.6,42.5,32.8,15.4,4.7,-4.0,45,22,9,30.12,29.93,29,5,33,0.00
2013-11-19,46.7,42.8,36.6,27.5,13.4,-5.0,68,33,12,29.93,29.55,43,7,53,0.00
2013-11-20,47.1,39.2,25.3,28.3,20.0,14.5,85,47,29,29.86,29.63,28,5,39,0.00
2013-11-21,25.1,9.5,3.7,21.6,5.0,-1.0,89,81,78,30.80,29.86,6,1,7,0.00
2013-11-22,31.9,21.3,14.6,22.0,10.3,0.0,83,64,28,30.86,30.71,8,1,9,0.04
2013-11-23,24.5,21.1,17.2,20.7,15.7,-2.0,92,80,38,30.73,30.42,6,1,9,0.00
2013-11-24,37.8,31.9,21.0,31.4,21.1,0.0,88,68,21,30.42,30.00,15,2,25,0.09
2013-11-25,34.1,29.9,25.3,21.3,14.5,2.8,64,53,26,30.34,30.06,10,2,15,0.03
2013-11-26,37.8,29.7,21.6,16.4,13.6,7.4,76,52,33,30.48,30.31,8,2,11,0.00
2013-11-27,49.4,42.0,31.6,15.3,10.0,6.5,43,27,18,30.30,30.03,19,5,28,0.04
2013-11-28,41.8,34.3,28.7,24.0,16.5,7.7,64,49,25,30.13,30.04,4,1,8,0.00
2013-11-29,47.1,42.3,38.0,13.5,10.6,6.5,34,27,22,30.11,30.01,21,6,32,0.01
2013-11-30,47.0,39.3,34.0,11.0,7.6,2.6,37,27,19,30.10,30.02,20,6,28,0.00
2013-12-1,40.9,37.2,32.9,21.2,14.3,7.3,53,39,31,30.09,29.78,27,6,37,0.00
2013-12-2,42.6,39.6,36.9,19.7,17.1,12.8,48,40,32,29.81,29.37,55,24,81,0.00
2013-12-3,40.2,26.4,2.2,27.3,13.2,-3.0,86,61,35,29.64,29.35,40,8,50,0.00
2013-12-4,3.0,-1.2,-6.0,-2.0,-7.3,-12.0,77,74,72,30.40,29.64,5,1,10,0.00
2013-12-5,-1.0,-5.4,-10.0,-7.0,-12.2,-17.0,75,72,69,30.55,30.37,5,0,6,0.00
2013-12-6,0.0,-5.5,-13.0,-6.0,-12.3,-21.0,75,71,67,30.66,30.53,4,0,8,0.00
2013-12-7,10.4,2.9,-3.0,4.7,-3.1,-9.0,79,75,70,30.63,30.05,5,1,7,0.00
2013-12-8,15.9,9.7,0.0,8.5,0.8,-6.0,79,67,42,30.22,29.94,26,2,37,0.00
2013-12-9,17.0,6.9,-5.0,-3.0,-10.6,-19.0,76,47,24,30.42,30.21,72,13,72,0.00
2013-12-10,29.8,23.7,14.3,9.0,2.8,-5.0,76,41,31,30.45,29.99,47,17,76,0.00
2013-12-11,36.8,26.0,9.0,8.7,-1.3,-11.0,82,37,12,30.44,30.31,28,4,28,0.00
2013-12-12,49.5,40.5,32.5,3.2,-5.2,-14.0,21,14,9,30.42,29.84,16,3,27,0.00
2013-12-13,40.8,33.4,23.8,12.8,5.1,-12.0,60,32,11,30.09,29.70,18,4,25,0.00
2013-12-14,34.3,28.3,18.6,11.6,5.1,1.1,64,38,25,30.30,30.09,32,6,68,0.00
2013-12-15,42.1,37.1,30.6,13.6,9.3,5.5,47,32,24,30.19,29.94,55,18,78,0.00
2013-12-16,45.1,42.0,39.9,13.5,7.2,-1.0,33,24,16,30.13,29.94,45,18,66,0.00
2013-12-17,48.3,43.5,37.9,9.4,6.2,3.4,27,21,18,30.22,29.96,29,10,43,0.00
2013-12-18,52.8,47.0,38.0,10.9,4.3,1.3,31,17,13,29.97,29.55,22,5,36,0.00
2013-12-19,48.2,33.8,10.5,19.7,13.0,6.3,91,49,19,29.66,29.35,15,4,27,0.00
2013-12-20,36.3,21.8,9.2,25.7,12.1,4.5,94,68,36,29.80,29.66,15,2,19,0.00
2013-12-21,30.0,21.0,15.4,17.5,10.5,0.9,89,67,34,29.98,29.59,9,2,13,0.00
2013-12-22,25.7,19.8,11.9,12.6,6.4,0.0,86,58,33,30.32,29.98,29,6,38,0.00
2013-12-23,35.2,25.2,9.2,18.0,11.6,4.5,86,58,39,30.40,30.14,39,10,53,0.00
2013-12-24,38.9,30.8,22.9,26.0,11.7,-5.0,87,45,25,30.25,29.95,46,13,65,0.00
2013-12-25,35.6,29.0,22.1,4.6,-0.8,-6.0,35,27,16,30.44,30.23,32,7,47,0.00
2013-12-26,42.1,36.8,33.2,9.5,3.1,-7.0,34,24,14,30.31,30.20,39,10,49,0.00
2013-12-27,47.1,41.2,36.0,16.5,13.0,7.7,39,31,24,30.24,29.95,10,3,16,0.00
2013-12-28,45.4,34.3,14.0,19.4,14.0,10.3,89,49,26,30.07,29.74,27,7,38,0.00
2013-12-29,30.7,20.9,12.8,14.4,7.7,-3.0,85,62,23,30.26,30.01,37,5,58,0.00
2013-12-30,33.7,29.5,25.0,8.2,5.5,1.3,47,36,27,30.30,30.10,33,9,45,0.00
2013-12-31,41.1,36.7,32.1,17.9,12.9,5.2,49,37,28,30.14,29.86,54,10,69,0.00
2014-1-1,34.7,26.5,17.5,23.8,15.5,6.0,92,65,35,30.27,29.81,25,6,41,0.00
2014-1-2,41.5,35.0,26.4,13.5,4.4,-6.0,42,28,16,30.32,29.96,40,9,51,0.00